Location: Newark
(58.6000°N, 7.8338°E)
Time: 15:10:04
(UTC+00:00)

OTV 5 (USA 277) - Pass Details

Date: 20 August 2019
Orbit: 310 x 324 km, 54.5° (Epoch: 17 October)

Event Time Altitude Azimuth Distance (km) Brightness Sun altitude
Exits shadow 02:11:09 24° 207° (SSW) 701 ? -11.8°
Maximum altitude 02:11:24 25° 197° (SSW) 691 ? -11.8°
Drops below altitude 10° 02:13:40 10° 139° (SE) 1,207 ? -11.6°
Sets 02:15:48 0° 125° (SE) 2,034 ? -11.5°
